Regional Weather Roundup
Issued by NWS

Home | Current Version | Previous Version | Text Only | Print | Product List | Glossary Off
Versions: 1 2 3 4 5 6 7 8 9 10 11 12 13 14 15 16 17 18 19 20 21 22 23 24 25 26 27 28 29 30 31 32 33 34 35 36 37 38 39 40 41 42 43 44 45 46 47 48 49 50

000
ASUS43 KLMK 012302
RWRKY
KENTUCKY REGIONAL WEATHER ROUNDUP
NATIONAL WEATHER SERVICE LOUISVILLE KY
700 PM EDT WED APR 01 2015

NOTE "FAIR" INDICATES FEW OR NO CLOUDS BELOW 12,000 FEET
WITH NO SIGNIFICANT WEATHER AND/OR OBSTRUCTIONS TO VISIBILITY.

KYZ001>023-026-027-061>063-070>075-020000-
WESTERN AND SOUTH CENTRAL KENTUCKY

CITY           SKY/WX    TMP DP  RH WIND       PRES   REMARKS
PADUCAH        CLOUDY    73  38  27 SE7       29.95F
HENDERSON      SUNNY     72  37  28 SE9       29.99S
OWENSBORO      SUNNY     73  34  24 SE9       30.02S
HOPKINSVILLE   MOSUNNY   72  38  29 E10       29.99F
BOWLING GREEN  MOSUNNY   70  38  31 E5        30.04F
GLASGOW        NOT AVBL
$$

KYZ024-025-028>034-038-045-046-053-020000-
NORTH CENTRAL KENTUCKY

CITY           SKY/WX    TMP DP  RH WIND       PRES   REMARKS
LOUISVILLE/SDF PTSUNNY   67  31  26 S12       30.06F
LOUISVILLE/LOU MOSUNNY   67  30  25 SE8       30.06S
FORT KNOX      MOSUNNY   68  31  25 E10       30.04S HAZE
$$

KYZ035>037-039>044-047>052-055>060-089>105-020000-
NORTHEAST KENTUCKY

CITY           SKY/WX    TMP DP  RH WIND       PRES   REMARKS
LEXINGTON      MOSUNNY   64  28  25 SE6       30.08F
COVINGTON      PTSUNNY   63  32  31 S12       30.08R
FRANKFORT      PTSUNNY   63  29  27 E7        30.07F
$$

KYZ054-064>069-076>088-106>120-020000-
SOUTHEAST KENTUCKY

CITY           SKY/WX    TMP DP  RH WIND       PRES   REMARKS
JACKSON        SUNNY     64  16  15 VRB5      30.10S
LONDON         MOSUNNY   69  16  13 NE3       30.07F
SOMERSET       NOT AVBL
MIDDLESBORO    SUNNY     69  27  20 SE5       30.08R
MONTICELLO     PTCLDY    70  29  21 NE5       30.08S
$$




USA.gov is the U.S. government's official web portal to all federal, state and local government web resources and services.